Weather History for New Haven, CT

Change the Weather History Date:

Wednesday, November 21, 2012

  Actual Average Record
Temperature  
Mean Temperature 46 °F -  
Max Temperature 55 °F 49 °F 65 °F (1991)
Min Temperature 37 °F 35 °F 21 °F (2008)
Degree Days  
Heating Degree Days 19    
Moisture  
Dew Point 30 °F    
Average Humidity 59    
Maximum Humidity 73    
Minimum Humidity 41    
Precipitation  
Precipitation 0.00 in - - ()
Sea Level Pressure  
Sea Level Pressure 30.20 in    
Wind  
Wind Speed 8 mph (North)    
Max Wind Speed 13 mph    
Max Gust Speed -    
Visibility 10 miles    
Events      
Averages and records for this station are not official NWS values.
T = Trace of Precipitation, MM = Missing Value Source: NWS Daily Summary

Daily Weather History Graph

Daily Weather History Graph

Search for Another Location

Airport:

Trip Planner

Search our weather history database for the weather conditions in past years. The results will help you decide how hot, cold, wet, or windy it might be!

Date:

Astronomy

Nov. 21, 2012 Rise Set
Actual Time 6:47 AM EST 4:27 PM EST
Civil Twilight 6:17 AM EST 4:57 PM EST
Nautical Twilight 5:43 AM EST 5:31 PM EST
Astronomical Twilight 5:10 AM EST 6:04 PM EST
Moon 12:46 PM EST (11/21) No Moon Set
Length of Visible Light 10h 40m
Length of Day
9h 40m
First Quarter, 61% of the Moon is Illuminated
Nov 21
First Quarter
Nov 28
Full
Dec 6
Last Quarter
Dec 13
New
Dec 20
First Quarter

Hourly Weather History & Observations

Time (EST) Temp. Windchill Dew Point Humidity Pressure Visibility Wind Dir Wind Speed Gust Speed Precip Events Conditions
12:53 AM 39.0 °F 34.0 °F 28.9 °F 67% 30.15 in 10.0 mi NNE 6.9 mph - N/A   Clear
1:53 AM 39.0 °F 34.8 °F 28.9 °F 67% 30.16 in 10.0 mi North 5.8 mph - N/A   Clear
2:53 AM 37.9 °F 32.7 °F 28.0 °F 68% 30.17 in 10.0 mi North 6.9 mph - N/A   Clear
3:53 AM 37.0 °F 31.0 °F 28.0 °F 70% 30.16 in 10.0 mi North 8.1 mph - N/A   Clear
4:53 AM 39.0 °F 33.4 °F 28.0 °F 65% 30.18 in 10.0 mi North 8.1 mph - N/A   Clear
5:53 AM 39.0 °F 32.3 °F 27.0 °F 62% 30.19 in 10.0 mi North 10.4 mph - N/A   Scattered Clouds
6:53 AM 39.0 °F 32.8 °F 27.0 °F 62% 30.19 in 10.0 mi North 9.2 mph - N/A   Mostly Cloudy
7:53 AM 39.0 °F 32.3 °F 27.0 °F 62% 30.21 in 10.0 mi North 10.4 mph - N/A   Mostly Cloudy
8:53 AM 42.1 °F 35.7 °F 27.0 °F 55% 30.21 in 10.0 mi North 11.5 mph - N/A   Mostly Cloudy
9:53 AM 48.0 °F - 28.9 °F 48% 30.22 in 10.0 mi North 11.5 mph - N/A   Scattered Clouds
10:53 AM 51.1 °F - 30.0 °F 44% 30.21 in 10.0 mi North 11.5 mph - N/A   Scattered Clouds
11:53 AM 53.1 °F - 30.9 °F 43% 30.20 in 10.0 mi North 11.5 mph - N/A   Scattered Clouds
12:53 PM 55.0 °F - 32.0 °F 42% 30.18 in 10.0 mi North 12.7 mph - N/A   Clear
1:53 PM 54.0 °F - 30.9 °F 41% 30.17 in 10.0 mi North 5.8 mph - N/A   Scattered Clouds
2:53 PM 55.0 °F - 32.0 °F 42% 30.17 in 10.0 mi NNE 6.9 mph - N/A   Scattered Clouds
3:53 PM 52.0 °F - 32.0 °F 47% 30.17 in 10.0 mi North 8.1 mph - N/A   Scattered Clouds
4:53 PM 46.9 °F - 32.0 °F 56% 30.19 in 10.0 mi North 6.9 mph - N/A   Clear
5:53 PM 43.0 °F 41.3 °F 30.9 °F 62% 30.21 in 10.0 mi NNE 3.5 mph - N/A   Clear
6:53 PM 42.1 °F 38.4 °F 30.0 °F 62% 30.23 in 10.0 mi North 5.8 mph - N/A   Clear
7:53 PM 42.1 °F 38.4 °F 30.9 °F 65% 30.24 in 10.0 mi North 5.8 mph - N/A   Clear
8:53 PM 39.9 °F 35.1 °F 30.0 °F 68% 30.25 in 10.0 mi North 6.9 mph - N/A   Clear
9:53 PM 39.0 °F 35.7 °F 30.0 °F 70% 30.25 in 10.0 mi North 4.6 mph - N/A   Clear
10:53 PM 39.0 °F 33.4 °F 30.9 °F 73% 30.23 in 10.0 mi North 8.1 mph - N/A   Clear
11:53 PM 39.9 °F 33.9 °F 32.0 °F 73% 30.24 in 10.0 mi North 9.2 mph - N/A   Clear